When you browse on this site, cookies collect data to enhance your experience and personalize the content and advertising you see.
Visit our Privacy Policy to learn more. By continuing to use the site, you agree to this use of cookies and data.
  • In Germany
  • List of Countries
  • For 7 days
  • Water Temperature
  • Weather Map
  • Weather Widgets
  • user-avatar
    Login

    Hourly Weather Leicester

    Today, 15 October, Tuesday

    Time Temperature Precipitation Wind Pressure Humidity
    00:00 +11°C° 0 mm 3 mps 744 mmHg 96%
    01:00 +10°C° 0 mm 3 mps 744 mmHg 96%
    02:00 +10°C° 0 mm 4 mps 744 mmHg 95%
    03:00 +10°C° 0 mm 4 mps 744 mmHg 95%
    04:00 +10°C° 0 mm 3 mps 744 mmHg 95%
    05:00 +9°C° 0 mm 2 mps 744 mmHg 95%
    06:00 +9°C° 0 mm 2 mps 745 mmHg 95%
    07:00 +10°C° 0 mm 2 mps 745 mmHg 94%
    08:00 +10°C° 0 mm 2 mps 745 mmHg 92%
    09:00 +12°C° 0 mm 2 mps 745 mmHg 90%
    10:00 +13°C° 0 mm 2 mps 745 mmHg 87%
    11:00 +14°C° 0 mm 2 mps 745 mmHg 84%
    12:00 +14°C° 0 mm 3 mps 746 mmHg 80%
    13:00 +14°C° 0 mm 3 mps 745 mmHg 81%
    14:00 +14°C° 0 mm 3 mps 745 mmHg 82%
    15:00 +14°C° 0 mm 3 mps 745 mmHg 82%
    16:00 +14°C° 0 mm 2 mps 745 mmHg 85%
    17:00 +13°C° 0 mm 2 mps 745 mmHg 89%
    18:00 +12°C° 0 mm 2 mps 745 mmHg 92%
    19:00 +11°C° 0 mm 3 mps 746 mmHg 92%
    20:00 +10°C° 0 mm 3 mps 746 mmHg 92%
    21:00 +10°C° 0 mm 3 mps 746 mmHg 92%
    22:00 +9°C° 0 mm 3 mps 746 mmHg 92%
    23:00 +9°C° 0 mm 3 mps 745 mmHg 91%

    Tomorrow, 16 October, Wednesday

    Time Temperature Precipitation Wind Pressure Humidity
    00:00 +8°C° 0 mm 4 mps 745 mmHg 91%
    01:00 +8°C° 0.2 mm 4 mps 744 mmHg 91%
    02:00 +9°C° 0.2 mm 5 mps 744 mmHg 91%
    03:00 +10°C° 0.2 mm 5 mps 743 mmHg 92%
    04:00 +10°C° 0.8 mm 6 mps 742 mmHg 92%
    05:00 +11°C° 0.8 mm 7 mps 742 mmHg 93%
    06:00 +11°C° 0.8 mm 7 mps 741 mmHg 93%
    07:00 +11°C° 0.1 mm 7 mps 741 mmHg 92%
    08:00 +13°C° 0.1 mm 6 mps 741 mmHg 90%
    09:00 +13°C° 0.1 mm 5 mps 742 mmHg 88%
    10:00 +13°C° 0 mm 6 mps 742 mmHg 84%
    11:00 +13°C° 0 mm 6 mps 743 mmHg 81%
    12:00 +13°C° 0 mm 6 mps 743 mmHg 77%
    13:00 +13°C° 0 mm 6 mps 744 mmHg 74%
    14:00 +13°C° 0 mm 5 mps 744 mmHg 72%
    15:00 +13°C° 0 mm 5 mps 745 mmHg 69%
    16:00 +12°C° 0 mm 4 mps 745 mmHg 72%
    17:00 +10°C° 0 mm 3 mps 746 mmHg 76%
    18:00 +9°C° 0 mm 3 mps 746 mmHg 79%
    19:00 +9°C° 0 mm 3 mps 746 mmHg 80%
    20:00 +8°C° 0 mm 3 mps 747 mmHg 80%
    21:00 +8°C° 0 mm 3 mps 747 mmHg 81%
    22:00 +7°C° 0 mm 3 mps 748 mmHg 83%
    23:00 +7°C° 0 mm 3 mps 748 mmHg 85%

    Day after tomorrow, 17 October, Thursday

    Time Temperature Precipitation Wind Pressure Humidity
    00:00 +7°C° 0 mm 3 mps 748 mmHg 87%
    01:00 +7°C° 0 mm 3 mps 748 mmHg 88%
    02:00 +7°C° 0 mm 3 mps 748 mmHg 90%
    03:00 +5°C° 0 mm 3 mps 748 mmHg 91%
    04:00 +5°C° 0 mm 3 mps 748 mmHg 90%
    05:00 +5°C° 0 mm 3 mps 748 mmHg 90%
    06:00 +5°C° 0 mm 3 mps 748 mmHg 89%
    07:00 +6°C° 0 mm 4 mps 748 mmHg 86%
    08:00 +8°C° 0 mm 4 mps 748 mmHg 83%
    09:00 +9°C° 0 mm 5 mps 748 mmHg 80%
    10:00 +10°C° 0 mm 5 mps 748 mmHg 76%
    11:00 +11°C° 0 mm 6 mps 748 mmHg 71%
    12:00 +13°C° 0 mm 6 mps 748 mmHg 67%
    13:00 +13°C° 0.1 mm 6 mps 747 mmHg 69%
    14:00 +13°C° 0.1 mm 6 mps 747 mmHg 71%
    15:00 +13°C° 0.1 mm 6 mps 747 mmHg 73%
    16:00 +12°C° 0.1 mm 5 mps 747 mmHg 77%
    17:00 +10°C° 0.1 mm 5 mps 747 mmHg 81%
    18:00 +10°C° 0.1 mm 4 mps 747 mmHg 85%
    19:00 +9°C° 0 mm 5 mps 747 mmHg 85%
    20:00 +9°C° 0 mm 5 mps 747 mmHg 86%
    21:00 +8°C° 0 mm 5 mps 747 mmHg 87%
    22:00 +8°C° 0 mm 5 mps 746 mmHg 87%
    23:00 +8°C° 0 mm 5 mps 746 mmHg 87%

    18 October, Friday

    Time Temperature Precipitation Wind Pressure Humidity
    00:00 +8°C° 0 mm 5 mps 746 mmHg 88%
    01:00 +9°C° 0.1 mm 5 mps 745 mmHg 87%
    02:00 +9°C° 0.1 mm 5 mps 745 mmHg 86%
    03:00 +9°C° 0.1 mm 5 mps 744 mmHg 84%
    04:00 +8°C° 0.3 mm 5 mps 744 mmHg 86%
    05:00 +8°C° 0.3 mm 5 mps 743 mmHg 87%
    06:00 +8°C° 0.3 mm 6 mps 743 mmHg 89%
    07:00 +8°C° 0.3 mm 6 mps 743 mmHg 86%
    08:00 +9°C° 0.3 mm 6 mps 743 mmHg 84%
    09:00 +9°C° 0.3 mm 6 mps 744 mmHg 81%
    10:00 +10°C° 0.1 mm 6 mps 744 mmHg 77%
    11:00 +11°C° 0.1 mm 7 mps 745 mmHg 72%
    12:00 +11°C° 0.1 mm 8 mps 745 mmHg 67%
    13:00 +11°C° 0.1 mm 7 mps 745 mmHg 69%
    14:00 +11°C° 0.1 mm 7 mps 745 mmHg 70%
    15:00 +11°C° 0.1 mm 7 mps 745 mmHg 71%
    16:00 +10°C° 0 mm 6 mps 745 mmHg 75%
    17:00 +9°C° 0 mm 5 mps 745 mmHg 78%
    18:00 +9°C° 0 mm 5 mps 745 mmHg 82%
    19:00 +9°C° 0.1 mm 5 mps 745 mmHg 83%
    20:00 +9°C° 0.1 mm 5 mps 744 mmHg 84%
    21:00 +9°C° 0.1 mm 5 mps 744 mmHg 86%
    22:00 +9°C° 0.4 mm 5 mps 744 mmHg 87%
    23:00 +10°C° 0.4 mm 4 mps 744 mmHg 88%

    19 October, Saturday

    Time Temperature Precipitation Wind Pressure Humidity
    00:00 +8°C° 0.4 mm 4 mps 743 mmHg 89%
    01:00 +9°C° 0 mm 3 mps 743 mmHg 90%
    02:00 +8°C° 0 mm 3 mps 743 mmHg 91%
    03:00 +8°C° 0 mm 3 mps 742 mmHg 92%
    04:00 +8°C° 0 mm 3 mps 742 mmHg 92%
    05:00 +8°C° 0 mm 3 mps 742 mmHg 92%
    06:00 +8°C° 0 mm 3 mps 742 mmHg 92%
    07:00 +8°C° 0 mm 4 mps 741 mmHg 90%
    08:00 +8°C° 0 mm 4 mps 741 mmHg 87%
    09:00 +9°C° 0 mm 5 mps 741 mmHg 85%
    10:00 +10°C° 0.1 mm 5 mps 741 mmHg 82%
    11:00 +11°C° 0.1 mm 6 mps 741 mmHg 78%
    12:00 +11°C° 0.1 mm 6 mps 741 mmHg 74%
    13:00 +11°C° 0.4 mm 6 mps 741 mmHg 74%
    14:00 +11°C° 0.4 mm 6 mps 741 mmHg 74%
    15:00 +12°C° 0.4 mm 5 mps 741 mmHg 74%
    16:00 +10°C° 0.1 mm 5 mps 741 mmHg 78%
    17:00 +10°C° 0.1 mm 4 mps 741 mmHg 81%
    18:00 +9°C° 0.1 mm 3 mps 741 mmHg 85%
    19:00 +8°C° 0 mm 4 mps 741 mmHg 87%
    20:00 +7°C° 0 mm 4 mps 742 mmHg 88%
    21:00 +7°C° 0 mm 4 mps 742 mmHg 90%
    22:00 +7°C° 0 mm 4 mps 742 mmHg 91%
    23:00 +7°C° 0 mm 4 mps 742 mmHg 92%

    20 October, Sunday

    Time Temperature Precipitation Wind Pressure Humidity
    00:00 +6°C° 0 mm 4 mps 742 mmHg 93%
    01:00 +6°C° 0 mm 4 mps 742 mmHg 93%
    02:00 +6°C° 0 mm 4 mps 742 mmHg 93%
    03:00 +6°C° 0 mm 4 mps 743 mmHg 94%
    04:00 +6°C° 0 mm 4 mps 743 mmHg 93%
    05:00 +6°C° 0 mm 4 mps 743 mmHg 93%
    06:00 +6°C° 0 mm 4 mps 744 mmHg 93%
    07:00 +7°C° 0 mm 4 mps 744 mmHg 91%
    08:00 +7°C° 0 mm 4 mps 745 mmHg 89%
    09:00 +8°C° 0 mm 4 mps 745 mmHg 88%
    10:00 +10°C° 0 mm 4 mps 746 mmHg 83%
    11:00 +11°C° 0 mm 4 mps 746 mmHg 78%
    12:00 +12°C° 0 mm 4 mps 747 mmHg 74%
    13:00 +12°C° 0.1 mm 4 mps 747 mmHg 73%
    14:00 +12°C° 0.1 mm 4 mps 747 mmHg 73%
    15:00 +12°C° 0.1 mm 4 mps 748 mmHg 73%
    16:00 +10°C° 0 mm 3 mps 748 mmHg 77%
    17:00 +9°C° 0 mm 3 mps 749 mmHg 81%
    18:00 +8°C° 0 mm 2 mps 749 mmHg 85%
    19:00 +8°C° 0 mm 2 mps 750 mmHg 87%
    20:00 +7°C° 0 mm 2 mps 751 mmHg 88%
    21:00 +7°C° 0 mm 2 mps 752 mmHg 89%
    22:00 +7°C° 0 mm 2 mps 752 mmHg 89%
    23:00 +7°C° 0 mm 2 mps 752 mmHg 89%
    Show more